FW8732 Weather Reports


time (UTC)temp
C
wind
direction
speed
KPH
gust
KPH
rain 1hr
cm
rain 24hr
cm
rain mn
cm
humidity
%
barometer
mb
20260505070052 6 168 6.4 19.3 0.00 0.48 0.00 87 1008.6
20260505064604 6 205 3.2 20.9 0.00 0.58 0.00 87 1008.3
20260505063054 6 231 3.2 12.9 0.00 0.58 0.00 87 1008.0
20260505061554 6 256 6.4 19.3 0.00 0.58 0.00 87 1007.7
20260505060100 6 144 6.4 14.5 0.00 0.58 0.00 87 1007.4
20260505054620 6 151 4.8 14.5 0.00 0.58 0.00 85 1007.0
20260505053052 6 189 3.2 14.5 0.00 0.58 0.00 85 1006.8
20260505051551 7 220 6.4 27.4 0.00 0.58 0.00 84 1006.6
20260505041601 8 262 8.0 30.6 0.00 0.64 0.00 81 1005.7
20260505040055 8 248 11.3 24.1 0.00 0.64 0.00 80 1005.6
20260505034553 8 200 11.3 24.1 0.00 0.64 0.00 79 1005.3
20260505033052 8 296 9.7 29.0 0.00 0.64 0.00 79 1005.1
20260505031554 8 272 14.5 40.2 0.00 0.64 0.00 78 1004.8
20260505030104 8 263 9.7 35.4 0.00 0.64 0.00 78 1004.6
20260505024602 8 258 8.0 30.6 0.00 0.64 0.64 78 1004.4
20260505023059 8 254 11.3 40.2 0.00 0.64 0.64 79 1004.2
20260505021558 8 255 8.0 27.4 0.00 0.64 0.64 79 1004.0
20260505020103 8 192 8.0 24.1 0.00 0.64 0.64 77 1003.8
20260505014557 8 259 9.7 29.0 0.00 0.71 0.64 77 1003.6
20260505013052 8 214 11.3 30.6 0.00 0.71 0.64 77 1003.6
20260505011555 8 302 9.7 33.8 0.00 0.71 0.64 76 1003.6
20260505010112 8 161 14.5 32.2 0.00 0.71 0.64 75 1003.4
20260505004555 8 266 11.3 43.5 0.00 0.91 0.64 74 1003.2
20260505003052 9 249 11.3 32.2 0.00 0.91 0.64 71 1003.1
20260505001554 9 260 11.3 37.0 0.00 0.91 0.64 71 1002.9
20260505000101 10 163 16.1 49.9 0.00 0.91 0.64 67 1002.6
20260504234558 9 233 9.7 33.8 0.00 1.32 0.64 67 1002.7
20260504233112 9 160 9.7 24.1 0.00 1.32 0.64 67 1002.3
20260504231552 9 253 9.7 27.4 0.00 1.32 0.64 67 1002.1
20260504230110 9 297 11.3 25.7 0.00 1.32 0.64 65 1002.0
20260504224607 10 228 9.7 35.4 0.00 1.57 0.64 63 1002.0
20260504223106 10 277 12.9 35.4 0.00 1.57 0.64 61 1001.9
20260504221553 10 235 9.7 30.6 0.00 1.57 0.64 61 1001.7
20260504220057 11 167 9.7 25.7 0.00 1.57 0.64 59 1001.6
20260504214552 11 243 16.1 41.8 0.00 2.01 0.64 57 1001.4
20260504213056 11 222 19.3 43.5 0.00 2.01 0.64 56 1001.5
20260504211559 11 170 11.3 38.6 0.00 2.01 0.64 58 1001.1
20260504210104 11 272 25.7 61.2 0.00 2.01 0.64 56 1001.0
20260504204605 11 300 17.7 56.3 0.00 2.08 0.64 60 1000.5
20260504203058 11 244 19.3 61.2 0.00 2.08 0.64 60 1000.0
20260504201607 11 268 24.1 53.1 0.03 2.08 0.64 63 1000.0
20260504200103 11 329 22.5 53.1 0.03 2.08 0.64 66 999.6
20260504194556 11 293 20.9 40.2 0.03 2.16 0.64 70 999.4
20260504193055 11 265 14.5 49.9 0.03 2.16 0.64 72 999.1
20260504191617 11 276 19.3 45.1 0.00 2.13 0.61 74 999.2
20260504190100 10 283 19.3 51.5 0.00 2.13 0.61 77 998.7
20260504184603 9 309 20.9 56.3 0.00 2.21 0.61 81 998.7
20260504183056 8 312 19.3 49.9 0.00 2.21 0.61 82 998.4
20260504181556 8 264 16.1 66.0 0.00 2.21 0.61 87 998.4
20260504180056 7 346 14.5 48.3 0.00 2.21 0.61 88 998.3
20260504174557 6 305 20.9 46.7 0.00 2.21 0.61 89 998.0
20260504173057 6 235 16.1 40.2 0.00 2.21 0.61 90 997.7
20260504171556 6 234 17.7 45.1 0.00 2.21 0.61 92 997.5
20260504120124 3 276 24.1 46.7 0.03 1.93 0.33 95 987.4
20260504081610 2 237 12.9 35.4 0.10 1.85 0.25 98 977.3